map of ORN home
ORN - Airport
Location
City:  Oran, Oran, Algeria
Near (Alt.):Es SÚnia
Name:Es SÚnia International Airport
Old (Alt.):Ahmed Ben Bella AB
ICAO:DAOO
IATA:ORN

Details
Type:Airport (Aerodrome, Airfield)
Use:Public/Civil, Military, International (customs port of entry)
Latitude:35░37'38"N (35.627222)
Longitude:0░36'41"W (-0.611388)
Elevation:299 ft (91 m)
Variation:0.07░E (WMM2015 magnetic declination)
0.11░ annual change
Runways:2
Longest:10039 × 148 ft (3060 × 45 m)

Time
Time Zone:UTC+1
Local Time:

Weather
METAR:DAOO 200330Z 05008KT 5000 FEW013 SCT026 BKN100 13/12 Q1018
TAF:DAOO 192300Z 2000/2024 04010KT 5000 -RA FEW013 SCT026 BKN100
TEMPO 2002/2008 4000 -TSRA BKN026 FEW030CB
BECMG 2012/2014 06015KT 9999 SCT026
TEMPO 2015/2020 02015G25KT

Related Locations
Nearby:
Farthest:NZOP: 12232 mi / 19686 km
Opotiki, BOP, NZ

Find:

   beyond  
but within

Other Information
Maps:
NOTAMs:
Links:
Sources:

  
flag of Algeria   

Sectional Chart

Flight Planning
at skyvector.com

Satellite Image

Google Maps Satellite view

 

Copyright © 2004-2017 Karl L. Swartz. All rights reserved.
The Great Circle Mapper name and logo are trademarks of the Great Circle Mapper.
All other trademarks mentioned herein belong to their respective owners.
Please see credits for attibutions and further copyright information.

  Follow gcmap on Facebook Follow gcmap on Twitter Follow gcmap on Google+ GCmap on LinkedIn

hCard Microformat

Geo Microformat